Location: Barbaros
(36.8866°N, 30.7083°E)
Time: 02:54:32
(UTC+00:00)

Daily predictions for brighter satellites

Satellite Brightness Start Highest point End
(mag) Time Altitude Azimuth Time Altitude Azimuth Time Altitude Azimuth
CZ-3A R/B 4.5 01:28:29 30° SE 01:28:29 30° SE 01:41:30 10° ESE
CZ-3 R/B 4.0 01:31:22 58° SW 01:35:37 65° S 01:46:10 10° ESE
Lacrosse 5 4.2 01:53:13 20° E 01:53:13 20° E 01:55:31 10° ENE
ATLAS 2AS CENTAUR R/B 3.0 02:08:11 76° SE 02:08:26 76° ESE 02:16:29 10° NE
USA 238 DEB 3.8 02:22:01 70° N 02:22:50 78° ENE 02:30:18 10° SE
USA 238 3.9 02:22:05 69° N 02:22:56 77° ENE 02:30:24 10° SE
Cosmos 2322 Rocket 3.7 02:22:30 10° SSE 02:27:31 33° ESE 02:32:33 10° NE
Cosmos 1680 Rocket 4.3 02:27:08 41° SE 02:28:21 49° ESE 02:33:27 10° NNE
Cosmos 2344 4.2 02:30:56 38° NNW 02:30:56 38° NNW 02:36:45 10° NNE
Cosmos 2263 Rocket 3.6 02:31:37 20° N 02:34:47 35° ENE 02:39:57 10° SE
BREEZE-M DEB (TANK) 3.8 02:40:50 57° WNW 02:42:26 72° SW 02:46:32 10° SE
Meteor 1-21 Rocket 4.4 02:41:02 30° N 02:44:09 77° E 02:50:04 10° SSE
Cosmos 2112 Rocket 4.4 02:41:58 13° S 02:46:40 63° ESE 02:51:58 10° NNE
Cosmos 972 Rocket 4.2 02:49:13 38° N 02:51:34 79° ENE 02:56:51 10° SSE
OAO 1 4.5 02:57:43 65° SW 02:58:18 72° S 03:03:47 10° E
Gbstr 26 Del rocket 4.2 02:57:09 55° W 02:58:31 65° NW 03:06:18 10° NE
SL-8 Rocket 4.5 02:54:39 10° N 03:00:45 59° E 03:06:47 10° SSE
SKYMED 2 4.2 02:57:42 10° SSE 03:01:56 56° ENE 03:04:54 19° N
Cosmos 2181 Rocket 4.0 02:56:42 10° S 03:02:53 79° E 03:09:12 10° N
Cosmos 1953 Rocket 4.1 02:59:55 18° N 03:03:05 57° E 03:07:21 10° SSE
ALOS 2.6 03:00:00 10° NNE 03:04:39 66° ESE 03:09:15 10° S
Cosmos 1758 Rocket 3.8 03:08:12 53° SSW 03:08:12 53° SSW 03:11:42 10° S
SL-16 R/B 2.1 03:03:53 10° SSW 03:09:33 86° WNW 03:15:16 10° NNE
FENGYUN 3A 3.8 03:04:47 10° NNE 03:10:12 73° ESE 03:15:36 10° S
Cosmos 2360 Rocket 3.5 03:07:43 10° S 03:12:59 40° ESE 03:18:15 10° NE
ATLAS 3B R/B 3.3 03:07:46 14° NNW 03:13:25 53° NE 03:20:12 10° SE
NOSS 3-2 (C) 4.0 03:10:14 23° NW 03:15:36 82° WSW 03:24:10 10° SSE
STARLINK 1062 4.4 03:15:51 24° SSW 03:18:03 50° SE 03:22:04 10° ENE
Cosmos 2341 Rocket 3.9 03:12:08 10° NNW 03:18:21 71° W 03:24:30 10° S
Cosmos 1980 Rocket 3.9 03:22:10 16° NNW 03:22:10 16° NNW 03:23:53 10° N
COSMOS 2455 4.1 03:22:49 22° NNW 03:22:49 22° NNW 03:26:16 10° N
STARLINK 1053 4.2 03:20:40 23° SSW 03:23:03 56° SE 03:27:07 10° NE
NOSS 3-4 (A) 3.7 03:23:34 37° W 03:24:54 42° NW 03:30:49 10° NNE
NOSS 3-4 (C) 3.7 03:23:36 37° W 03:25:00 42° NW 03:30:56 10° NNE
USA 215 4.2 03:19:56 10° ESE 03:25:58 41° NE 03:31:26 13° NNW
CZ-4B R/B 3.8 03:22:36 10° NNE 03:28:01 58° ESE 03:33:18 10° S
STARLINK 1061 4.0 03:25:26 21° SSW 03:28:02 63° SE 03:32:07 10° NE
Meteor 1-16 Rocket 4.4 03:22:42 10° SSW 03:28:28 53° WNW 03:34:11 10° N
Cosmos 1825 Rocket 3.8 03:30:16 42° W 03:30:16 42° W 03:34:23 10° SSW
STARLINK 1067 3.8 03:30:12 20° SW 03:32:59 70° SE 03:37:07 10° NE
CENTAUR R/B 3.2 03:25:43 14° NW 03:33:04 82° WSW 03:41:51 10° SSE
Lacrosse 5 2.1 03:32:29 35° W 03:34:06 46° NW 03:39:00 10° NNE
NOSS 3-2 (A) 4.4 03:29:53 25° WNW 03:34:06 44° WSW 03:42:03 10° S
Okean O Rocket 1.8 03:31:43 10° NNE 03:36:09 73° E 03:40:33 10° S
Cosmos 2058 Rocket 3.0 03:32:41 10° SSW 03:37:02 62° W 03:41:22 10° N
Cosmos 864 Rocket 4.5 03:31:22 10° N 03:37:37 88° E 03:43:54 10° S
STARLINK 1058 3.7 03:34:56 18° SW 03:37:54 78° SE 03:42:02 10° NE
Cosmos 1908 3.5 03:38:01 10° SSW 03:41:46 44° W 03:45:32 10° N
Genesis I 3.0 03:40:19 30° NW 03:42:06 74° WSW 03:45:52 10° SSE
STARLINK 1043 3.6 03:39:44 17° SW 03:42:53 86° SE 03:47:03 10° NE
Cosmos 1328 3.8 03:39:53 16° NNW 03:42:55 54° W 03:46:46 10° S
Cosmos 2218 Rocket 3.9 03:36:49 10° N 03:43:12 76° W 03:49:27 10° S
RESURS DK-1 2.3 03:40:59 10° SSW 03:45:04 63° WNW 03:49:11 10° NNE
Cosmos 1726 Rocket 4.2 03:41:09 10° SW 03:45:05 31° WNW 03:49:02 10° NNW
Cosmos 158 Rocket 4.1 03:42:47 10° SW 03:47:25 44° WNW 03:52:07 10° N
Milstar 3 Cent rocket 4.4 03:31:43 10° WSW 03:47:43 52° S 03:55:19 10° ESE
STARLINK 1065 3.5 03:44:29 15° SW 03:47:51 86° NW 03:52:00 10° NE
COSMO-SKYMED 1 3.0 03:45:59 10° SSW 03:50:01 38° W 03:53:32 13° NNW
PAYLOAD B 4.2 03:46:08 10° N 03:51:41 62° WNW 03:57:11 10° SSW
STARLINK 1063 3.5 03:49:17 14° SW 03:52:50 78° NW 03:57:00 10° NE
Cosmos 2228 4.4 03:54:16 20° NW 03:54:16 20° NW 03:56:29 10° NNW
Cosmos 1959 Rocket 4.5 03:49:45 10° NNW 03:55:46 60° W 04:01:49 10° S
STARLINK 1064 3.5 03:54:01 12° SW 03:57:46 71° NW 04:01:55 10° NE
ATLAS 2AS CENTAUR R/B 3.9 03:55:42 17° W 04:00:13 28° NW 04:06:53 10° NNE
SMAP 3.9 03:56:18 10° NNE 04:00:52 54° E 04:05:24 10° S
STARLINK 1041 3.6 03:58:50 11° WSW 04:02:47 64° NW 04:06:55 10° NE
SL-4 R/B 3.8 04:05:24 12° WSW 04:05:50 12° SW 04:07:10 10° SSW
STARLINK 1038 3.7 04:03:41 10° WSW 04:07:45 58° NW 04:11:51 10° NE
Meteor 1-11 4.4 04:03:58 10° NNW 04:09:24 51° W 04:14:52 10° SSW
Cosmos 2322 Rocket 2.9 04:06:32 10° WSW 04:11:29 31° WNW 04:16:31 10° N
Abrixas rocket 3.2 04:10:25 18° W 04:12:01 28° SW 04:14:40 10° SSE
Cosmos 2366 rocket 4.3 04:06:12 10° NNW 04:12:13 46° W 04:18:11 10° SSW
Cosmos 1703 4.4 04:09:16 10° NW 04:12:24 23° W 04:15:31 10° SW
STARLINK 1046 3.8 04:08:45 10° WSW 04:12:47 52° NW 04:16:50 10° NE
STARLINK 1039 3.9 04:13:44 10° WSW 04:17:44 47° NW 04:21:45 10° NE
Cosmos 2263 Rocket 3.1 04:13:45 10° NW 04:18:32 29° WSW 04:23:19 10° SSW
Cosmos 1371 Rocket 4.5 04:15:53 10° NNW 04:20:51 41° WSW 04:25:50 10° S
STARLINK-60 3.0 04:18:58 11° NW 04:22:11 89° SSW 04:25:32 10° SE
STARLINK 1045 4.0 04:18:46 10° WSW 04:22:43 43° NW 04:26:41 10° NE
Cosmos 2084 Rocket 4.1 04:20:42 10° SSW 04:24:58 62° ESE 04:29:20 10° NE
STARLINK 1050 4.2 04:23:59 10° WSW 04:27:51 38° NW 04:31:45 10° NNE
Cosmos 1340 Rocket 2.7 04:24:32 10° SSW 04:28:24 70° W 04:32:19 10° N
Iridium 96 3.4 04:26:19 10° S 04:28:50 79° W 04:31:14 10° N
Cosmos 2333 Rocket 2.8 04:24:42 10° S 04:30:23 65° ESE 04:36:06 10° NNE
Cosmos 1844 Rocket 3.1 04:24:48 10° NNW 04:30:26 68° ENE 04:36:03 10° SSE
Cosmos 1420 Rocket 4.1 04:25:49 10° NNW 04:31:10 88° WSW 04:36:28 10° SSE
Alouette 2 Rocket 3.7 04:28:03 10° SSW 04:32:42 48° W 04:36:18 10° N
STARLINK 1055 4.3 04:29:01 10° WSW 04:32:50 35° NW 04:36:40 10° NNE
Lacrosse 5 rocket 4.0 04:31:28 10° N 04:33:23 12° NNE 04:35:16 10° NE
Cosmos-2242 3.8 04:32:53 10° S 04:37:12 59° E 04:41:31 10° NNE
STARLINK 1022 4.4 04:34:05 10° W 04:37:49 32° NW 04:41:36 10° NNE
IRS-1C Rocket 4.1 04:33:24 10° N 04:38:41 76° WNW 04:43:56 10° SSW
Cosmos 2058 3.0 04:34:39 10° N 04:38:52 88° ENE 04:43:05 10° S
NOAA 12 4.3 04:34:46 10° NNE 04:40:05 83° ESE 04:45:25 10° SSW
Feng Yun 1-1 Rocket 4.4 04:36:49 10° N 04:42:44 78° WNW 04:48:29 10° SSW
